EN

Hourly Weather Oupeye

Today, 9 March, Tuesday

Time Temperature Precipitation Wind Pressure Humidity
00:00 +4°C° 0 mm 1 mps 757 mmHg 86%
01:00 +4°C° 0 mm 1 mps 757 mmHg 88%
02:00 +3°C° 0 mm 2 mps 756 mmHg 90%
03:00 +3°C° 0 mm 2 mps 756 mmHg 92%
04:00 +2°C° 0 mm 3 mps 756 mmHg 93%
05:00 +2°C° 0 mm 3 mps 755 mmHg 94%
06:00 +1°C° 0 mm 4 mps 755 mmHg 95%
07:00 +1°C° 0.1 mm 4 mps 755 mmHg 95%
08:00 +1°C° 0.1 mm 4 mps 755 mmHg 94%
09:00 +3°C° 0.1 mm 4 mps 755 mmHg 93%
10:00 +3°C° 0.1 mm 4 mps 755 mmHg 93%
11:00 +4°C° 0.1 mm 3 mps 755 mmHg 92%
12:00 +4°C° 0.1 mm 3 mps 755 mmHg 91%
13:00 +5°C° 0.2 mm 3 mps 755 mmHg 88%
14:00 +7°C° 0.2 mm 3 mps 755 mmHg 85%
15:00 +6°C° 0.2 mm 4 mps 755 mmHg 82%
16:00 +5°C° 0.1 mm 3 mps 755 mmHg 85%
17:00 +4°C° 0.1 mm 3 mps 755 mmHg 88%
18:00 +4°C° 0.1 mm 2 mps 755 mmHg 90%
19:00 +4°C° 0 mm 2 mps 755 mmHg 92%
20:00 +4°C° 0 mm 2 mps 755 mmHg 94%
21:00 +3°C° 0 mm 2 mps 756 mmHg 96%
22:00 +3°C° 0 mm 2 mps 756 mmHg 96%
23:00 +3°C° 0 mm 2 mps 756 mmHg 96%

Tomorrow, 10 March, Wednesday

Time Temperature Precipitation Wind Pressure Humidity
00:00 +3°C° 0 mm 2 mps 756 mmHg 96%
01:00 +3°C° 0 mm 2 mps 756 mmHg 96%
02:00 +4°C° 0 mm 2 mps 756 mmHg 95%
03:00 +4°C° 0 mm 2 mps 756 mmHg 94%
04:00 +2°C° 0 mm 3 mps 756 mmHg 94%
05:00 +2°C° 0 mm 3 mps 756 mmHg 94%
06:00 +2°C° 0 mm 3 mps 756 mmHg 94%
07:00 +3°C° 0 mm 3 mps 756 mmHg 90%
08:00 +4°C° 0 mm 3 mps 756 mmHg 87%
09:00 +5°C° 0 mm 3 mps 756 mmHg 83%
10:00 +6°C° 0 mm 4 mps 756 mmHg 78%
11:00 +7°C° 0 mm 5 mps 756 mmHg 73%
12:00 +8°C° 0 mm 5 mps 755 mmHg 68%
13:00 +8°C° 0 mm 6 mps 755 mmHg 69%
14:00 +8°C° 0 mm 6 mps 754 mmHg 69%
15:00 +8°C° 0 mm 6 mps 754 mmHg 69%
16:00 +7°C° 0 mm 6 mps 753 mmHg 71%
17:00 +7°C° 0 mm 6 mps 753 mmHg 74%
18:00 +6°C° 0 mm 5 mps 752 mmHg 76%
19:00 +5°C° 0.4 mm 6 mps 752 mmHg 79%
20:00 +4°C° 0.4 mm 7 mps 751 mmHg 82%
21:00 +4°C° 0.4 mm 8 mps 751 mmHg 85%
22:00 +4°C° 0.3 mm 8 mps 750 mmHg 85%
23:00 +5°C° 0.3 mm 9 mps 749 mmHg 85%

Day after tomorrow, 11 March, Thursday

Time Temperature Precipitation Wind Pressure Humidity
00:00 +5°C° 0.3 mm 9 mps 749 mmHg 85%
01:00 +5°C° 0.1 mm 9 mps 748 mmHg 85%
02:00 +6°C° 0.1 mm 9 mps 747 mmHg 85%
03:00 +6°C° 0.1 mm 9 mps 746 mmHg 85%
04:00 +6°C° 0.3 mm 9 mps 746 mmHg 86%
05:00 +6°C° 0.3 mm 9 mps 745 mmHg 87%
06:00 +7°C° 0.3 mm 9 mps 744 mmHg 87%
07:00 +7°C° 1.1 mm 9 mps 744 mmHg 88%
08:00 +7°C° 1.1 mm 9 mps 744 mmHg 89%
09:00 +8°C° 1.1 mm 9 mps 744 mmHg 90%
10:00 +9°C° 0.8 mm 10 mps 744 mmHg 80%
11:00 +9°C° 0.8 mm 10 mps 744 mmHg 71%
12:00 +11°C° 0.8 mm 11 mps 745 mmHg 61%
13:00 +9°C° 0.3 mm 11 mps 744 mmHg 63%
14:00 +9°C° 0.3 mm 10 mps 744 mmHg 66%
15:00 +8°C° 0.3 mm 10 mps 744 mmHg 69%
16:00 +7°C° 0.1 mm 9 mps 745 mmHg 70%
17:00 +6°C° 0.1 mm 8 mps 745 mmHg 72%
18:00 +5°C° 0.1 mm 7 mps 746 mmHg 73%
19:00 +5°C° 0 mm 7 mps 746 mmHg 74%
20:00 +4°C° 0 mm 8 mps 747 mmHg 75%
21:00 +3°C° 0 mm 9 mps 747 mmHg 75%
22:00 +2°C° 0 mm 8 mps 748 mmHg 76%
23:00 +2°C° 0 mm 8 mps 748 mmHg 77%

12 March, Friday

Time Temperature Precipitation Wind Pressure Humidity
00:00 +3°C° 0 mm 7 mps 749 mmHg 77%
01:00 +2°C° 0 mm 7 mps 749 mmHg 79%
02:00 +2°C° 0 mm 6 mps 749 mmHg 81%
03:00 +2°C° 0 mm 6 mps 750 mmHg 83%
04:00 +2°C° 0 mm 6 mps 750 mmHg 84%
05:00 +2°C° 0 mm 6 mps 750 mmHg 86%
06:00 +2°C° 0 mm 6 mps 750 mmHg 87%
07:00 +2°C° 0 mm 7 mps 750 mmHg 83%
08:00 +3°C° 0 mm 7 mps 750 mmHg 79%
09:00 +4°C° 0 mm 8 mps 750 mmHg 74%
10:00 +5°C° 0 mm 8 mps 749 mmHg 72%
11:00 +5°C° 0 mm 8 mps 749 mmHg 70%
12:00 +6°C° 0 mm 9 mps 749 mmHg 67%
13:00 +6°C° 0.1 mm 9 mps 748 mmHg 66%
14:00 +7°C° 0.1 mm 9 mps 747 mmHg 65%
15:00 +7°C° 0.1 mm 9 mps 747 mmHg 64%
16:00 +6°C° 1 mm 8 mps 746 mmHg 71%
17:00 +5°C° 1 mm 8 mps 746 mmHg 78%
18:00 +4°C° 1 mm 7 mps 746 mmHg 84%
19:00 +3°C° 0.1 mm 7 mps 747 mmHg 84%
20:00 +3°C° 0.1 mm 6 mps 747 mmHg 84%
21:00 +3°C° 0.1 mm 6 mps 747 mmHg 83%
22:00 +3°C° 0 mm 6 mps 747 mmHg 84%
23:00 +3°C° 0 mm 7 mps 747 mmHg 85%

13 March, Saturday

Time Temperature Precipitation Wind Pressure Humidity
00:00 +3°C° 0 mm 7 mps 747 mmHg 86%
01:00 +3°C° 0.2 mm 7 mps 747 mmHg 86%
02:00 +3°C° 0.2 mm 7 mps 746 mmHg 87%
03:00 +3°C° 0.2 mm 7 mps 746 mmHg 87%
04:00 +4°C° 0.1 mm 8 mps 746 mmHg 88%
05:00 +4°C° 0.1 mm 8 mps 745 mmHg 88%
06:00 +3°C° 0.1 mm 9 mps 745 mmHg 89%
07:00 +3°C° 0.4 mm 9 mps 744 mmHg 89%
08:00 +3°C° 0.4 mm 10 mps 744 mmHg 89%
09:00 +5°C° 0.4 mm 10 mps 744 mmHg 89%
10:00 +5°C° 0.5 mm 10 mps 743 mmHg 89%
11:00 +5°C° 0.5 mm 10 mps 743 mmHg 89%
12:00 +5°C° 0.5 mm 10 mps 742 mmHg 89%
13:00 +5°C° 0.4 mm 10 mps 742 mmHg 88%
14:00 +6°C° 0.4 mm 10 mps 741 mmHg 87%
15:00 +6°C° 0.4 mm 10 mps 741 mmHg 86%
16:00 +5°C° 0.5 mm 10 mps 741 mmHg 84%
17:00 +5°C° 0.5 mm 9 mps 741 mmHg 82%
18:00 +5°C° 0.5 mm 9 mps 740 mmHg 81%
19:00 +3°C° 0.2 mm 9 mps 740 mmHg 82%
20:00 +2°C° 0.2 mm 8 mps 741 mmHg 84%
21:00 +2°C° 0.2 mm 8 mps 741 mmHg 85%
22:00 +1°C° 0.1 mm 9 mps 741 mmHg 86%
23:00 0°C° 0.1 mm 9 mps 741 mmHg 86%

14 March, Sunday

Time Temperature Precipitation Wind Pressure Humidity
00:00 0°C° 0.1 mm 9 mps 742 mmHg 86%
01:00 0°C° 0.8 mm 9 mps 742 mmHg 86%
02:00 +1°C° 0.8 mm 8 mps 743 mmHg 85%
03:00 +1°C° 0.8 mm 8 mps 744 mmHg 84%
04:00 0°C° 0.1 mm 7 mps 745 mmHg 85%
05:00 0°C° 0.1 mm 7 mps 745 mmHg 86%
06:00 -1°C° 0.1 mm 6 mps 746 mmHg 86%
07:00 +1°C° 0.3 mm 6 mps 747 mmHg 86%
08:00 0°C° 0.3 mm 7 mps 747 mmHg 87%
09:00 +2°C° 0.3 mm 7 mps 748 mmHg 87%
10:00 +2°C° 0.2 mm 7 mps 748 mmHg 86%
11:00 +3°C° 0.2 mm 6 mps 749 mmHg 85%
12:00 +3°C° 0.2 mm 6 mps 749 mmHg 84%
13:00 +4°C° 0.3 mm 6 mps 750 mmHg 81%
14:00 +5°C° 0.3 mm 6 mps 750 mmHg 78%
15:00 +5°C° 0.3 mm 7 mps 750 mmHg 75%
16:00 +6°C° 0.1 mm 5 mps 751 mmHg 79%
17:00 +5°C° 0.1 mm 4 mps 751 mmHg 83%
18:00 +4°C° 0.1 mm 3 mps 752 mmHg 86%
19:00 +4°C° 0.2 mm 4 mps 752 mmHg 88%
20:00 +4°C° 0.2 mm 4 mps 752 mmHg 89%
21:00 +4°C° 0.2 mm 4 mps 753 mmHg 90%
22:00 +3°C° 0.3 mm 5 mps 753 mmHg 91%
23:00 +3°C° 0.3 mm 5 mps 753 mmHg 91%
Show more

We Need Your Consent

Meteoprog and our Service Providers may store and access personal data such as cookies, device identifiers or other similar technologies on your device and process such data to personalise content and ads, as well as provide social media features and to analyse the traffic.

  • Store and/or access information on your device

    Cookies, device identifiers or other information can be stored or accessed on your device for the purposes indicated above.

  • Personalised ads and content, ad and content measurement, audience insights, and products development

    Ads and content can be personalised based on a profile. More data can be added to better personalise ads and content. Ad and content performance can be measured. Insights about the audience who saw the ads and content can be derived. Such data can be used to develop or improve user’s experience, systems and software.

By clicking ‘I Agree’ you will allow the use of indicated cookies, device identifiers, web beacons or other similar technologies. Your settings can be changed in the browser on your device.

For certain purposes, legitimate interests may be relied on, rather than consent. You can read more about this in our Privacy and Cookie Policy.